AF7DW Weather Reports


Display with metric or nautical units.
time (UTC)temp
F
wind
direction
speed
MPH
gust
MPH
rain 1hr
in
rain 24hr
in
rain mn
in
humidity
%
barometer
mb
20260502152041 60 0 0.0 1.0 0.00 0.00 0.00 29 1021.5
20260502151549 59 0 0.0 0.0 0.00 0.00 0.00 31 1021.5
20260502151043 58 0 0.0 0.0 0.00 0.00 0.00 31 1021.4
20260502150539 57 0 0.0 0.0 0.00 0.00 0.00 36 1021.5
20260502130542 47 0 0.0 0.0 0.00 0.00 0.00 40 1020.9
20260502123538 46 0 0.0 0.0 0.00 0.00 0.00 39 1020.7
20260502123045 46 0 0.0 0.0 0.00 0.00 0.00 38 1020.7
20260502122540 46 0 0.0 0.0 0.00 0.00 0.00 38 1020.7
20260502122039 46 0 0.0 0.0 0.00 0.00 0.00 37 1020.7
20260502121551 46 0 0.0 0.0 0.00 0.00 0.00 37 1020.6
20260502121040 46 0 0.0 0.0 0.00 0.00 0.00 37 1020.6
20260502120542 46 0 0.0 0.0 0.00 0.00 0.00 36 1020.6
20260502115536 46 0 0.0 0.0 0.00 0.00 0.00 37 1020.6
20260502115036 46 0 0.0 0.0 0.00 0.00 0.00 37 1020.5
20260502114552 46 0 0.0 0.0 0.00 0.00 0.00 37 1020.6
20260502114039 46 0 0.0 0.0 0.00 0.00 0.00 38 1020.7
20260502113535 46 0 0.0 0.0 0.00 0.00 0.00 38 1020.7
20260502113051 46 0 0.0 0.0 0.00 0.00 0.00 40 1020.8
20260502112540 46 0 0.0 0.0 0.00 0.00 0.00 39 1020.9
20260502112039 46 0 0.0 0.0 0.00 0.00 0.00 39 1020.8
20260502111554 47 0 0.0 0.0 0.00 0.00 0.00 39 1020.9
20260502111039 47 0 0.0 0.0 0.00 0.00 0.00 39 1020.8
20260502110539 47 0 0.0 0.0 0.00 0.00 0.00 38 1020.8
20260502110054 47 0 0.0 0.0 0.00 0.00 0.00 38 1020.8
20260502105539 47 0 0.0 0.0 0.00 0.00 0.00 38 1020.8
20260502105039 47 0 0.0 0.0 0.00 0.00 0.00 37 1020.8
20260502104553 47 0 0.0 0.0 0.00 0.00 0.00 37 1020.7
20260502104036 47 0 0.0 0.0 0.00 0.00 0.00 37 1020.7
20260502103536 47 0 0.0 0.0 0.00 0.00 0.00 37 1020.6
20260502103046 47 0 0.0 0.0 0.00 0.00 0.00 37 1020.6
20260502102538 48 0 0.0 0.0 0.00 0.00 0.00 36 1020.7
20260502102036 48 0 0.0 0.0 0.00 0.00 0.00 38 1020.7
20260502101553 48 0 0.0 0.0 0.00 0.00 0.00 38 1020.7
20260502101042 48 0 0.0 0.0 0.00 0.00 0.00 38 1020.6
20260502100539 49 0 0.0 0.0 0.00 0.00 0.00 37 1020.7
20260502091039 50 0 0.0 0.0 0.00 0.00 0.00 32 1020.6
20260502090536 50 0 0.0 0.0 0.00 0.00 0.00 30 1020.5
20260502071043 51 0 0.0 0.0 0.00 0.00 0.00 33 1020.6
20260502070543 51 0 0.0 0.0 0.00 0.00 0.00 34 1020.7
20260502065537 52 0 0.0 0.0 0.00 0.00 0.00 34 1020.7
20260502065036 52 0 0.0 0.0 0.00 0.00 0.00 35 1020.7
20260502064548 52 0 0.0 0.0 0.00 0.00 0.00 35 1020.8
20260502064039 52 0 0.0 0.0 0.00 0.00 0.00 35 1020.7
20260502063537 52 0 0.0 0.0 0.00 0.00 0.00 36 1020.7
20260502063045 52 0 0.0 0.0 0.00 0.00 0.00 36 1020.7
20260502062543 53 0 0.0 0.0 0.00 0.00 0.00 36 1020.6
20260502062041 53 0 0.0 0.0 0.00 0.00 0.00 36 1020.5
20260502061550 53 0 0.0 0.0 0.00 0.00 0.00 37 1020.5
20260502061039 53 0 0.0 0.0 0.00 0.00 0.00 36 1020.5
20260502060544 53 0 0.0 0.0 0.00 0.00 0.00 35 1020.5
20260502060048 53 0 0.0 1.0 0.00 0.00 0.00 35 1020.5
20260502055539 53 0 0.0 1.0 0.00 0.00 0.00 36 1020.5
20260502055039 53 0 0.0 0.0 0.00 0.00 0.00 35 1020.5
20260502054545 53 0 0.0 0.0 0.00 0.00 0.00 36 1020.4
20260502054036 53 0 0.0 0.0 0.00 0.00 0.00 37 1020.4
20260502053538 54 0 0.0 0.0 0.00 0.00 0.00 36 1020.4
20260502053059 54 0 0.0 0.0 0.00 0.00 0.00 36 1020.4
20260502052539 54 0 0.0 0.0 0.00 0.00 0.00 36 1020.4
20260502052040 54 0 0.0 0.0 0.00 0.00 0.00 36 1020.3
20260502051603 54 0 0.0 0.0 0.00 0.00 0.00 36 1020.4
20260502051040 55 0 0.0 1.0 0.00 0.00 0.00 35 1020.4
20260502050539 55 0 0.0 1.0 0.00 0.00 0.00 34 1020.3
20260502050047 55 0 0.0 0.0 0.00 0.00 0.00 34 1020.3
20260502045540 55 0 0.0 0.0 0.00 0.00 0.00 34 1020.2
20260502045041 55 0 0.0 0.0 0.00 0.00 0.00 34 1020.2
20260502044549 55 0 0.0 0.0 0.00 0.00 0.00 33 1020.2
20260502044039 55 0 0.0 3.0 0.00 0.00 0.00 34 1020.1
20260502043539 56 0 0.0 3.0 0.00 0.00 0.00 33 1020.2
20260502043055 56 0 0.0 0.0 0.00 0.00 0.00 33 1020.1
20260502042541 56 0 0.0 0.0 0.00 0.00 0.00 33 1020.1
20260502042037 56 0 0.0 1.0 0.00 0.00 0.00 33 1020.1
20260502041610 56 0 0.0 1.0 0.00 0.00 0.00 32 1020.2
20260502041038 56 0 0.0 1.0 0.00 0.00 0.00 32 1020.1
20260502040539 57 0 0.0 0.0 0.00 0.00 0.00 32 1020.1
20260502040051 57 0 0.0 0.0 0.00 0.00 0.00 33 1020.1
20260502035538 57 0 0.0 0.0 0.00 0.00 0.00 33 1020.1
20260502035037 57 0 0.0 0.0 0.00 0.00 0.00 33 1020.1
20260502034552 57 0 0.0 0.0 0.00 0.00 0.00 33 1020.1
20260502034039 58 0 0.0 1.0 0.00 0.00 0.00 31 1019.9
20260502033540 58 0 0.0 4.0 0.00 0.00 0.00 30 1019.9
20260502033103 58 0 0.0 4.0 0.00 0.00 0.00 29 1019.8
20260502032539 58 14 0.0 2.0 0.00 0.00 0.00 29 1019.6
20260502032039 58 0 0.0 2.0 0.00 0.00 0.00 29 1019.5
20260502031549 58 0 0.0 2.0 0.00 0.00 0.00 29 1019.5
20260502031043 58 0 0.0 2.0 0.00 0.00 0.00 28 1019.3
20260502030538 58 0 0.0 1.0 0.00 0.00 0.00 29 1019.3
20260502030056 59 0 0.0 1.0 0.00 0.00 0.00 31 1019.2
20260502025536 59 0 0.0 1.0 0.00 0.00 0.00 31 1019.2
20260502025038 59 0 0.0 2.0 0.00 0.00 0.00 30 1019.2
20260502024551 60 0 0.0 2.0 0.00 0.00 0.00 31 1019.1
20260502024038 60 0 0.0 0.0 0.00 0.00 0.00 31 1019.1
20260502023538 60 0 0.0 0.0 0.00 0.00 0.00 30 1019.2
20260502023054 60 0 0.0 0.0 0.00 0.00 0.00 29 1019.2
20260502022540 61 0 0.0 0.0 0.00 0.00 0.00 29 1019.1
20260502022040 61 0 0.0 0.0 0.00 0.00 0.00 30 1019.1
20260502021546 61 0 0.0 3.0 0.00 0.00 0.00 29 1019.1
20260502021040 61 0 0.0 4.0 0.00 0.00 0.00 29 1019.1
20260502020537 61 0 0.0 4.0 0.00 0.00 0.00 28 1019.1
20260502020053 62 0 0.0 3.0 0.00 0.00 0.00 28 1019.1
20260502015540 62 0 0.0 4.0 0.00 0.00 0.00 28 1019.1
20260502015037 62 0 0.0 7.0 0.00 0.00 0.00 28 1019.1
20260502014549 62 0 0.0 8.0 0.00 0.00 0.00 28 1019.1
20260502014038 62 0 0.0 8.0 0.00 0.00 0.00 27 1019.0
20260502013538 62 0 0.0 7.0 0.00 0.00 0.00 28 1019.1
20260502013052 63 0 0.0 6.0 0.00 0.00 0.00 28 1019.0
20260502012539 63 0 0.0 12.0 0.00 0.00 0.00 28 1018.9
20260502012040 63 311 0.0 12.0 0.00 0.00 0.00 27 1018.9
20260502011550 63 0 0.0 8.0 0.00 0.00 0.00 27 1018.8
20260502011039 63 286 1.0 8.0 0.00 0.00 0.00 27 1018.8
20260502010539 63 0 0.0 9.0 0.00 0.00 0.00 27 1018.8
20260502010059 64 281 0.0 9.0 0.00 0.00 0.00 26 1018.7
20260502005537 64 0 1.0 9.0 0.00 0.00 0.00 27 1018.8
20260502005038 64 0 0.0 10.0 0.00 0.00 0.00 26 1018.8
20260502004553 64 0 1.0 10.0 0.00 0.00 0.00 26 1018.8
20260502004039 64 0 1.0 9.0 0.00 0.00 0.00 26 1018.7
20260502003538 64 293 0.0 9.0 0.00 0.00 0.00 26 1018.7
20260502003049 64 0 1.0 12.0 0.00 0.00 0.00 26 1018.8
20260502002538 64 0 0.0 12.0 0.00 0.00 0.00 27 1018.7
20260502002038 64 283 3.0 13.0 0.00 0.00 0.00 26 1018.7
20260502001544 64 269 3.0 13.0 0.00 0.00 0.00 26 1018.8
20260502001041 64 293 1.0 11.0 0.00 0.00 0.00 26 1018.8
20260502000538 65 0 0.0 13.0 0.00 0.00 0.00 26 1018.8
20260502000045 65 312 1.0 13.0 0.00 0.00 0.00 26 1018.8
20260501235539 65 0 2.0 10.0 0.00 0.00 0.00 26 1018.8
20260501235039 65 0 0.0 11.0 0.00 0.00 0.00 26 1018.9
20260501234544 65 0 2.0 11.0 0.00 0.00 0.00 26 1018.9
20260501234038 65 0 1.0 13.0 0.00 0.00 0.00 26 1018.9
20260501233540 65 270 1.0 13.0 0.00 0.00 0.00 25 1018.9
20260501233045 65 302 0.0 9.0 0.00 0.00 0.00 26 1019.0
20260501232538 65 0 1.0 9.0 0.00 0.00 0.00 26 1019.0
20260501232038 65 292 0.0 8.0 0.00 0.00 0.00 25 1019.1
20260501231610 66 0 1.0 13.0 0.00 0.00 0.00 26 1019.1
20260501231039 66 0 2.0 13.0 0.00 0.00 0.00 25 1019.1
20260501230540 66 0 0.0 9.0 0.00 0.00 0.00 27 1019.1
20260501230049 66 0 0.0 12.0 0.00 0.00 0.00 25 1019.2
20260501225537 66 302 1.0 12.0 0.00 0.00 0.00 25 1019.1
20260501225036 66 0 0.0 7.0 0.00 0.00 0.00 24 1019.2
20260501224548 67 0 0.0 7.0 0.00 0.00 0.00 24 1019.3
20260501224040 67 0 0.0 7.0 0.00 0.00 0.00 26 1019.2
20260501223538 67 0 0.0 11.0 0.00 0.00 0.00 26 1019.4
20260501223111 67 5 1.0 11.0 0.00 0.00 0.00 27 1019.4
20260501222542 67 28 1.0 14.0 0.00 0.00 0.00 24 1019.4
20260501222038 67 0 0.0 14.0 0.00 0.00 0.00 25 1019.5
20260501221542 67 329 2.0 14.0 0.00 0.00 0.00 26 1019.6
20260501221038 67 0 3.0 14.0 0.00 0.00 0.00 25 1019.7
20260501220538 67 305 2.0 13.0 0.00 0.00 0.00 26 1019.8
20260501220052 66 0 1.0 13.0 0.00 0.00 0.00 26 1019.8
20260501215542 66 295 1.0 13.0 0.00 0.00 0.00 27 1019.8
20260501215039 65 300 2.0 13.0 0.00 0.00 0.00 27 1019.8
20260501214555 65 286 3.0 12.0 0.00 0.00 0.00 27 1019.8
20260501214040 66 249 1.0 12.0 0.00 0.00 0.00 27 1020.0
20260501213538 66 0 3.0 11.0 0.00 0.00 0.00 27 1020.0
20260501213047 66 279 0.0 11.0 0.00 0.00 0.00 27 1020.1
20260501212538 66 257 0.0 12.0 0.00 0.00 0.00 26 1020.1
20260501212044 66 0 1.0 12.0 0.00 0.00 0.00 27 1020.3
20260501211543 66 298 0.0 11.0 0.00 0.00 0.00 27 1020.3
20260501211038 66 0 2.0 11.0 0.00 0.00 0.00 26 1020.3
20260501210538 66 319 1.0 12.0 0.00 0.00 0.00 26 1020.4
20260501210044 66 0 0.0 14.0 0.00 0.00 0.00 28 1020.4
20260501205538 66 0 2.0 14.0 0.00 0.00 0.00 26 1020.3
20260501205039 67 0 0.0 13.0 0.00 0.00 0.00 26 1020.3
20260501204600 66 287 0.0 13.0 0.00 0.00 0.00 24 1020.4
20260501204037 66 272 2.0 13.0 0.00 0.00 0.00 24 1020.3
20260501203538 66 0 1.0 9.0 0.00 0.00 0.00 25 1020.3
20260501203050 66 0 1.0 10.0 0.00 0.00 0.00 25 1020.3
20260501202541 66 0 0.0 10.0 0.00 0.00 0.00 25 1020.3
20260501202038 66 0 0.0 8.0 0.00 0.00 0.00 24 1020.3
20260501201552 66 0 0.0 10.0 0.00 0.00 0.00 26 1020.3
20260501201038 66 0 1.0 11.0 0.00 0.00 0.00 24 1020.3
20260501200538 66 0 2.0 11.0 0.00 0.00 0.00 23 1020.2
20260501200047 66 259 0.0 13.0 0.00 0.00 0.00 25 1020.2
20260501195538 65 0 0.0 13.0 0.00 0.00 0.00 26 1020.3
20260501195038 66 0 0.0 10.0 0.00 0.00 0.00 24 1020.2
20260501194549 66 0 0.0 6.0 0.00 0.00 0.00 24 1020.3
20260501194037 67 0 0.0 2.0 0.00 0.00 0.00 24 1020.3
20260501193538 67 0 0.0 1.0 0.00 0.00 0.00 22 1020.3
20260501193051 67 0 0.0 3.0 0.00 0.00 0.00 23 1020.5
20260501192539 66 0 0.0 3.0 0.00 0.00 0.00 19 1020.5
20260501192043 66 0 0.0 3.0 0.00 0.00 0.00 22 1020.6
20260501191554 66 0 0.0 6.0 0.00 0.00 0.00 24 1020.6
20260501191040 65 0 0.0 6.0 0.00 0.00 0.00 24 1020.6
20260501190539 66 201 0.0 2.0 0.00 0.00 0.00 22 1020.7
20260501190046 65 0 0.0 1.0 0.00 0.00 0.00 22 1020.7
20260501185541 66 0 0.0 4.0 0.00 0.00 0.00 19 1020.8
20260501185038 65 0 0.0 4.0 0.00 0.00 0.00 24 1020.9
20260501184551 65 123 0.0 4.0 0.00 0.00 0.00 20 1020.9
20260501184042 65 171 0.0 3.0 0.00 0.00 0.00 21 1021.0
20260501183544 64 0 0.0 4.0 0.00 0.00 0.00 21 1021.0
20260501183046 64 0 0.0 4.0 0.00 0.00 0.00 22 1021.1
20260501182538 64 0 0.0 3.0 0.00 0.00 0.00 21 1021.2
20260501182038 64 0 0.0 3.0 0.00 0.00 0.00 24 1021.2
20260501181546 64 0 0.0 4.0 0.00 0.00 0.00 21 1021.2
20260501181045 64 0 0.0 4.0 0.00 0.00 0.00 23 1021.3
20260501180542 63 0 0.0 4.0 0.00 0.00 0.00 23 1021.3
20260501180100 63 0 0.0 4.0 0.00 0.00 0.00 23 1021.3
20260501175539 63 0 1.0 5.0 0.00 0.00 0.00 23 1021.4
20260501175038 62 0 0.0 7.0 0.00 0.00 0.00 25 1021.4
20260501174604 62 0 0.0 7.0 0.00 0.00 0.00 25 1021.5
20260501174041 62 148 1.0 11.0 0.00 0.00 0.00 24 1021.5
20260501173543 61 156 0.0 12.0 0.00 0.00 0.00 24 1021.6
20260501173051 61 0 2.0 12.0 0.00 0.00 0.00 23 1021.5
20260501172541 61 0 0.0 5.0 0.00 0.00 0.00 23 1021.5
20260501172039 60 0 0.0 4.0 0.00 0.00 0.00 26 1021.5
20260501171552 60 0 0.0 11.0 0.00 0.00 0.00 24 1021.7
20260501171041 60 121 1.0 11.0 0.00 0.00 0.00 26 1021.6
20260501170541 59 121 2.0 11.0 0.00 0.00 0.00 25 1021.7
20260501170049 59 0 1.0 11.0 0.00 0.00 0.00 27 1021.6
20260501165538 58 121 1.0 11.0 0.00 0.00 0.00 26 1021.6
20260501165038 58 171 0.0 11.0 0.00 0.00 0.00 27 1021.6
20260501164551 59 0 0.0 15.0 0.00 0.00 0.00 27 1021.6
20260501164042 59 88 3.0 15.0 0.00 0.00 0.00 26 1021.6
20260501163542 58 0 2.0 13.0 0.00 0.00 0.00 27 1021.6
20260501163051 58 124 2.0 15.0 0.00 0.00 0.00 26 1021.7
20260501162542 57 131 2.0 15.0 0.00 0.00 0.00 26 1021.6
20260501162044 57 0 2.0 13.0 0.00 0.00 0.00 26 1021.5
20260501161602 57 137 2.0 12.0 0.00 0.00 0.00 26 1021.5
20260501161041 57 133 3.0 16.0 0.00 0.00 0.00 26 1021.5
20260501160541 57 138 2.0 16.0 0.00 0.00 0.00 27 1021.5
20260501160057 57 116 1.0 16.0 0.00 0.00 0.00 26 1021.6
20260501155541 57 139 2.0 13.0 0.00 0.00 0.00 26 1021.5
20260501155042 56 68 1.0 13.0 0.00 0.00 0.00 27 1021.5
20260501154558 56 61 2.0 11.0 0.00 0.00 0.00 27 1021.5
20260501154045 56 112 0.0 12.0 0.00 0.00 0.00 26 1021.4
20260501153545 55 103 0.0 12.0 0.00 0.00 0.00 27 1021.4
20260501153054 55 109 3.0 18.0 0.00 0.00 0.00 26 1021.5